Location: Zagreb
(45.8000°N, 16.0000°E)
Time: 14:54:28
(UTC+02:00)

A-11 Canister half - Pass Details

Date: 22 July 2024
Orbit: 1523 x 1684 km, 47.3° (Epoch: 18 July)

Event Time Altitude Azimuth Distance (km) Brightness Sun altitude
Exits shadow 02:47:07 - 156° (SSE) 4,342 11.0 -19.9°
Reaches altitude 10° 02:50:18 10° 140° (SE) 3,925 10.9 -19.6°
Maximum altitude 02:53:22 12° 121° (ESE) 3,776 11.0 -19.4°
Drops below altitude 10° 02:56:29 10° 103° (ESE) 3,913 11.3 -19.1°
Sets 03:02:31 0° 75° (ENE) 4,864 12.3 -18.6°
